EW4221 Weather Reports


Display with metric or nautical units.
time (UTC)temp
F
wind
direction
speed
MPH
gust
MPH
rain 1hr
in
rain 24hr
in
rain mn
in
humidity
%
barometer
mb
20260906040043 59 28 0.0 2.0 0.00 0.00 0.00 92 1013.6
20260906034605 60 43 0.0 5.0 0.00 0.00 0.00 92 1013.4
20260906033103 60 344 2.0 6.0 0.00 0.00 0.00 92 1013.5
20260906031546 60 22 3.0 8.0 0.00 0.00 0.00 92 1013.3
20260906030038 60 347 3.0 8.0 0.00 0.00 0.00 93 1013.1
20260906024537 60 263 1.0 6.0 0.00 0.00 0.00 92 1013.2
20260906023037 59 17 1.0 4.0 0.00 0.00 0.00 93 1013.2
20260906021538 59 339 3.0 6.0 0.00 0.00 0.00 92 1013.2
20260906020033 59 299 0.0 2.0 0.00 0.00 0.00 91 1012.9
20260906014532 59 355 0.0 3.0 0.00 0.00 0.00 91 1012.9
20260906013051 60 335 1.0 3.0 0.00 0.00 0.00 90 1012.8
20260906011530 60 346 1.0 3.0 0.00 0.00 0.00 90 1012.8
20260906010047 60 10 0.0 2.0 0.00 0.00 0.00 89 1012.7
20260906004528 61 335 0.0 2.0 0.00 0.00 0.00 87 1012.6
20260906003026 62 344 0.0 4.0 0.00 0.00 0.00 86 1012.4
20260906001524 62 5 2.0 5.0 0.00 0.00 0.00 85 1012.4
20260906000024 64 326 0.0 5.0 0.00 0.00 0.00 82 1012.3
20260905234522 64 339 3.0 6.0 0.00 0.00 0.00 80 1012.2
20260905233022 65 332 0.0 4.0 0.00 0.00 0.00 78 1012.0
20260905231526 67 355 2.0 8.0 0.00 0.00 0.00 75 1012.1
20260905230024 68 37 1.0 8.0 0.00 0.00 0.00 74 1012.0
20260905224518 68 360 4.0 12.0 0.00 0.00 0.00 73 1012.1
20260905223017 68 360 3.0 9.0 0.00 0.00 0.00 74 1011.7
20260905221516 68 329 3.0 11.0 0.00 0.00 0.00 73 1011.7
20260905220015 70 19 3.0 10.0 0.00 0.00 0.00 70 1011.7
20260905214516 72 355 5.0 13.0 0.00 0.00 0.00 69 1011.5
20260905213017 71 324 4.0 8.0 0.00 0.00 0.00 68 1011.3
20260905211516 72 13 5.0 11.0 0.00 0.00 0.00 65 1011.1
20260905210013 72 77 3.0 8.0 0.00 0.00 0.00 69 1011.2
20260905204534 72 31 5.0 11.0 0.00 0.00 0.00 70 1011.2
20260905203011 71 12 5.0 12.0 0.00 0.00 0.00 68 1011.0
20260905201509 70 17 3.0 10.0 0.00 0.00 0.00 73 1011.2
20260905200009 70 5 4.0 10.0 0.00 0.00 0.00 69 1011.1
20260905194508 70 18 6.0 12.0 0.00 0.00 0.00 71 1011.1
20260905193022 71 350 5.0 11.0 0.00 0.00 0.00 69 1011.2
20260905191506 71 12 4.0 9.0 0.00 0.00 0.00 70 1011.2
20260905190008 71 339 4.0 12.0 0.00 0.00 0.00 67 1011.3
20260905184510 72 221 1.0 9.0 0.00 0.00 0.00 68 1011.3
20260905183002 72 342 4.0 11.0 0.00 0.00 0.00 66 1011.4
20260905181601 72 20 5.0 9.0 0.00 0.00 0.00 70 1011.4
20260905180056 71 305 5.0 8.0 0.00 0.00 0.00 72 1011.4
20260905174555 69 9 3.0 11.0 0.00 0.00 0.00 75 1011.3
20260905173053 70 349 7.0 14.0 0.00 0.00 0.00 70 1011.5
20260905171610 70 301 6.0 11.0 0.00 0.00 0.00 69 1011.6
20260905170101 69 336 4.0 9.0 0.00 0.00 0.00 78 1011.7
20260905164551 68 350 5.0 8.0 0.00 0.00 0.00 74 1011.9
20260905163054 68 346 6.0 14.0 0.00 0.00 0.00 74 1011.9
20260905161548 70 45 5.0 10.0 0.00 0.00 0.00 72 1011.8
20260905160049 70 328 4.0 13.0 0.00 0.00 0.00 73 1011.8
20260905154556 69 299 6.0 14.0 0.00 0.00 0.00 73 1011.8
20260905153042 69 15 7.0 16.0 0.00 0.00 0.00 73 1011.9
20260905151602 68 296 6.0 13.0 0.00 0.00 0.00 74 1011.9
20260905150042 67 15 6.0 14.0 0.00 0.00 0.00 78 1012.0
20260905144537 67 301 6.0 13.0 0.00 0.00 0.00 81 1011.9
20260905143028 65 338 4.0 13.0 0.00 0.00 0.00 83 1012.0
20260905141526 65 340 3.0 8.0 0.00 0.00 0.00 84 1012.1
20260905140028 65 323 3.0 8.0 0.00 0.00 0.00 86 1012.0
20260905134525 64 313 3.0 10.0 0.00 0.00 0.00 88 1012.0
20260905133021 63 327 5.0 10.0 0.00 0.00 0.00 89 1011.8
20260905131532 62 46 4.0 12.0 0.00 0.00 0.00 92 1012.0
20260905130019 62 12 4.0 12.0 0.00 0.00 0.00 92 1012.0
20260905124519 61 24 5.0 10.0 0.00 0.00 0.00 93 1011.9
20260905123016 62 40 4.0 9.0 0.00 0.00 0.00 94 1012.2
20260905121514 61 355 4.0 10.0 0.00 0.00 0.00 94 1012.1
20260905120021 61 311 4.0 9.0 0.00 0.00 0.00 94 1012.2
20260905114516 61 323 3.0 10.0 0.00 0.00 0.00 95 1012.1
20260905113006 60 329 3.0 9.0 0.00 0.00 0.00 95 1011.5
20260905111505 60 342 4.0 9.0 0.00 0.00 0.00 95 1011.2
20260905110005 60 333 3.0 8.0 0.00 0.00 0.00 95 1011.2
20260905104502 60 351 4.0 9.0 0.00 0.00 0.00 94 1011.0
20260905103100 60 341 3.0 8.0 0.00 0.00 0.00 94 1010.9
20260905101559 60 345 3.0 6.0 0.00 0.00 0.00 94 1010.8
20260905100059 60 310 1.0 7.0 0.00 0.00 0.00 93 1010.6
20260905094715 60 300 2.0 6.0 0.00 0.00 0.00 93 1010.4
20260905093104 60 345 2.0 8.0 0.00 0.00 0.00 93 1010.5
20260905091601 60 298 3.0 8.0 0.00 0.00 0.00 93 1010.3
20260905090053 60 281 3.0 6.0 0.00 0.00 0.00 92 1010.3
20260905084602 60 330 3.0 8.0 0.00 0.00 0.00 92 1010.3
20260905083050 61 343 3.0 6.0 0.00 0.00 0.00 93 1010.3
20260905081548 61 302 3.0 8.0 0.00 0.00 0.00 93 1010.4
20260905074559 61 329 3.0 6.0 0.00 0.00 0.00 93 1010.6
20260905073044 62 337 3.0 8.0 0.00 0.00 0.00 92 1010.6
20260905071548 61 330 2.0 5.0 0.00 0.00 0.00 92 1010.7
20260905070042 61 342 2.0 8.0 0.00 0.00 0.00 93 1010.7
20260905064540 61 319 2.0 6.0 0.00 0.00 0.00 93 1011.0
20260905063039 61 328 2.0 4.0 0.00 0.00 0.00 93 1011.0
20260905061553 61 340 2.0 4.0 0.00 0.00 0.00 93 1011.1
20260905060109 61 327 1.0 3.0 0.00 0.00 0.00 92 1011.0
20260905054545 61 317 0.0 3.0 0.00 0.00 0.00 91 1011.3
20260905053030 62 341 1.0 3.0 0.00 0.00 0.00 91 1011.4
20260905051535 62 37 1.0 2.0 0.00 0.00 0.00 89 1011.4
20260905050028 63 12 1.0 3.0 0.00 0.00 0.00 87 1011.5
20260905044522 64 328 0.0 4.0 0.00 0.00 0.00 86 1011.7
20260905041517 66 11 1.0 4.0 0.00 0.00 0.00 82 1011.5